Погода в Бояринове

Россия / Псковская область     56°08′08″N   28°52′36″E
темп.,
°C
ветер,
м/с
пор.,
м/с
влажн.,
%
обл.,
%
осадки,
мм/ч
давл.,
гПа
погр.,
м
14 мая, пт
пт1400:00+7юв3997100 0.0 1010265
03:00+9юв3108899 0.0 1010444
06:00+9юв4119099 0.1 1009590
09:00+10вюв51295100 0.8 1008703
12:00+14юв6128488 0.1 10081075
15:00+16ююв6107772 1.1 10081404
18:00+13юв399279 1.3 1008449
21:00+12вюв389515 1.4 1007213
15 мая, сб
сб1500:00+10в2596100 0.0 1006108
03:00+10в2697100 0.1 1006133
06:00+11вюв2599100 3.9 1005146
09:00+13юв1498100 5.3 1005354
12:00+12юз3698100 2.1 1005392
15:00+13ююз249699 3.3 1005251
18:00+15ююз369197 1.6 1005385
21:00+13юз259647 2.8 1005120
16 мая, вс
вс1600:00+11з279758 0.7 1006137
03:00+9зсз239743 0.7 100852
06:00+9з229429 0.0 100952
09:00+14з12729 0.0 1010341
12:00+19юз225283 0.0 10101284
15:00+20ююз345499 0.2 10101778
18:00+17ю358213 1.8 1010488
21:00+13юв25951 3.0 101094
17 мая, пн
пн1700:00+11ююв279711 0.0 1010132
03:00+10юв389786 0.0 1010156
06:00+11юв312959 0.0 1010288
09:00+16юв4983100 0.0 1009447
12:00+20юв5858100 0.0 10081247
15:00+20юв3659100 0.1 10061325
18:00+14з2497100 2.6 1006231
21:00+13сз3799100 15.1 1003358
18 мая, вт
вт1800:00+12зюз249990 6.8 1004173
03:00+12з249992 6.9 1005267
06:00+10з2498100 0.0 1005181
09:00+13з2283100 0.0 1006422
12:00+17з2353100 0.0 10061026
15:00+20зюз1245100 0.0 10061661
18:00+17зюз3471100 0.3 1005430
21:00+13з2290100 1.4 100632